Terug naar catalogus

ATLAS 5 CENTAUR R/B

ActiefHEO
NORAD 39505·ROCKET BODY·🇺🇸 United States

Gelanceerd Jan 24, 2014 vanaf Cape Canaveral Space Force Station

Loading…

Volgende Passages (komende 24 uur)

TLE

VersSource: Space-Track

Epoch: Sep 14, 2026, 12:04 UTC

1 39505U 14004B   26257.50287552 -.00000041  00000-0  00000-0 0  9993
2 39505  25.9917   5.0520 5759389 283.3046  21.6247  2.06523164 95398

Volg ATLAS 5 CENTAUR R/B in realtime met AllMySat

Download on the App Store